Blytheville Muni Airport, AR

2:34 AM CDT on March 30, 2017 (GMT -0500)
Blytheville Municipal

Weather History for KHKA - April, 2014

Change the Weather History Date:

Thursday, April 3, 2014

  Actual Average Record
Temperature  
Mean Temperature 73 °F -  
Max Temperature 79 °F 68 °F 88 °F (1940)
Min Temperature 68 °F 49 °F 25 °F (1936)
Cooling Degree Days 8    
Growing Degree Days 23 (Base 50)    
Moisture  
Dew Point 64 °F    
Average Humidity 74    
Maximum Humidity 84    
Minimum Humidity 62    
Precipitation  
Precipitation 0.00 in - - ()
Sea Level Pressure  
Sea Level Pressure 29.78 in    
Wind  
Wind Speed 18 mph (SSW)    
Max Wind Speed 31 mph    
Max Gust Speed 43 mph    
Visibility 10 miles    
Events      
Averages and records for this station are not official NWS values.
T = Trace of Precipitation, MM = Missing Value Source: NWS Daily Summary

Daily Weather History Graph

Daily Weather History Graph

Search for Another Location

Airport or City:

Trip Planner

Search our weather history database for the weather conditions in past years. The results will help you decide how hot, cold, wet, or windy it might be!

Date:

Astronomy

Apr. 03, 2014 Rise Set
Actual Time 6:42 AM CDT 7:22 PM CDT
Civil Twilight 6:16 AM CDT 7:48 PM CDT
Nautical Twilight 5:46 AM CDT 8:19 PM CDT
Astronomical Twilight 5:15 AM CDT 8:50 PM CDT
Moon 9:18 AM CDT (4/3) 11:35 PM CDT (4/3)
Length of Visible Light 13h 31m
Length of Day
12h 40m
Waxing Crescent, 17% of the Moon is Illuminated
Apr 3
Waxing Crescent
Apr 7
First Quarter
Apr 15
Full
Apr 22
Last Quarter
Apr 29
New

Hourly Weather History & Observations

Time (CDT) Temp. Dew Point Humidity Pressure Visibility Wind Dir Wind Speed Gust Speed Precip Events Conditions
12:53 AM 68.0 °F 63.0 °F 84% 29.86 in 10.0 mi SSE 10.4 mph - N/A   Mostly Cloudy
1:53 AM 68.0 °F 63.0 °F 84% 29.83 in 10.0 mi South 12.7 mph - N/A   Clear
2:53 AM 70.0 °F 63.0 °F 78% 29.82 in 10.0 mi South 12.7 mph - N/A   Clear
3:53 AM 69.1 °F 62.1 °F 78% 29.82 in 10.0 mi SSW 11.5 mph 20.7 mph N/A   Scattered Clouds
4:53 AM 69.1 °F 62.1 °F 78% 29.82 in 10.0 mi SSW 18.4 mph 26.5 mph N/A   Overcast
5:53 AM 69.1 °F 62.1 °F 78% 29.81 in 10.0 mi South 19.6 mph 24.2 mph N/A   Overcast
6:38 AM 69.8 °F 62.6 °F 78% 29.84 in 10.0 mi South 15.0 mph - N/A   Mostly Cloudy
6:53 AM 70.0 °F 62.1 °F 76% 29.83 in 10.0 mi South 15.0 mph 23.0 mph N/A   Overcast
7:53 AM 70.0 °F 63.0 °F 78% 29.83 in 10.0 mi SSW 17.3 mph 27.6 mph N/A   Overcast
8:53 AM 71.1 °F 64.0 °F 78% 29.81 in 10.0 mi SSW 21.9 mph 33.4 mph N/A   Overcast
9:53 AM 73.0 °F 66.0 °F 79% 29.79 in 10.0 mi SSW 31.1 mph 39.1 mph N/A   Mostly Cloudy
10:34 AM 73.4 °F 66.2 °F 78% 29.79 in 10.0 mi SSW 24.2 mph 41.4 mph N/A   Scattered Clouds
10:53 AM 73.9 °F 66.0 °F 76% 29.79 in 10.0 mi SW 28.8 mph 38.0 mph N/A   Clear
11:18 AM 73.4 °F 66.2 °F 78% 29.80 in 10.0 mi SW 26.5 mph 36.8 mph N/A   Mostly Cloudy
11:53 AM 73.9 °F 66.9 °F 79% 29.80 in 10.0 mi SW 24.2 mph 35.7 mph N/A   Overcast
12:16 PM 73.4 °F 66.2 °F 78% 29.79 in 10.0 mi SW 20.7 mph 34.5 mph N/A   Overcast
12:45 PM 73.4 °F 66.2 °F 78% 29.78 in 10.0 mi SSW 27.6 mph 40.3 mph N/A   Overcast
12:53 PM 73.9 °F 66.9 °F 79% 29.78 in 10.0 mi SSW 23.0 mph 40.3 mph N/A   Overcast
1:19 PM 73.4 °F 66.2 °F 78% 29.77 in 10.0 mi SSW 29.9 mph 39.1 mph N/A   Overcast
1:53 PM 75.9 °F 66.9 °F 74% 29.78 in 10.0 mi SW 25.3 mph 42.6 mph N/A   Overcast
2:53 PM 75.9 °F 68.0 °F 76% 29.78 in 10.0 mi SSW 23.0 mph 28.8 mph N/A   Mostly Cloudy
3:53 PM 77.0 °F 66.9 °F 71% 29.75 in 10.0 mi SSW 24.2 mph 32.2 mph 0.00 in   Clear
4:53 PM 78.1 °F 66.0 °F 66% 29.72 in 10.0 mi SSW 18.4 mph 32.2 mph N/A   Clear
5:53 PM 78.1 °F 64.0 °F 62% 29.71 in 10.0 mi South 17.3 mph 24.2 mph N/A   Clear
6:53 PM 77.0 °F 63.0 °F 62% 29.73 in 10.0 mi SSW 15.0 mph 21.9 mph N/A   Clear
7:53 PM 75.9 °F 62.1 °F 62% 29.74 in 10.0 mi SSW 16.1 mph 20.7 mph N/A   Partly Cloudy
8:53 PM 75.0 °F 61.0 °F 62% 29.70 in 10.0 mi South 15.0 mph - N/A   Partly Cloudy
10:53 PM 73.9 °F 60.1 °F 62% 29.68 in 10.0 mi SSW 19.6 mph 28.8 mph N/A   Clear
11:53 PM 73.9 °F 60.1 °F 62% 29.68 in 10.0 mi SSW 18.4 mph - N/A   Clear